M I D A S
Marine Information and Data Acquisition System
Tripno 1888 of the Zeeleeuw from 2010-05-27 06:36:30 to 2010-05-27 13:59:45
Back to CruiseResearch ActivitiesStationsMapUnderway DataData graphs

EquipmentUnitsComments
TimeDGPSUTC
LatitudeDGPSDM.mWGS84
LongitudeDGPSDM.mWGS84
SpeedMeteo Stationm/sRelative wind speed
DirectionMeteo StationdegRelative wind direction
TemperatureMeteo Stationdeg CelciusAir temperature
PressureMeteo StationPaAtmospheric pressure
HumidityMeteo Station%Relative humidity
Missing or incorrect values are displayed as -999
Metereological data collected by the RV Zeeleeuw from 2010-05-27 06:23:34 to 2010-05-27 13:57:33
                                                                                    Next 1000 lines
Time Latitude Longitude Speed Direction Temperature Pressure Humidity
2010-05-27 06:23:44 51°13.662 2°55.956 -999 282 12.7 100930 36
2010-05-27 06:23:49 51°13.662 2°55.952 -999 252 12.8 100930 36
2010-05-27 06:23:54 51°13.664 2°55.948 -999 306 12.8 100930 36
2010-05-27 06:23:58 51°13.664 2°55.944 -999 24 12.7 100930 36
2010-05-27 06:24:04 51°13.666 2°55.938 -999 306 12.7 100930 36
2010-05-27 06:24:10 51°13.668 2°55.931 -999 265 12.8 100930 36
2010-05-27 06:24:15 51°13.669 2°55.924 -999 301 12.8 100930 36
2010-05-27 06:24:21 51°13.67 2°55.916 0.1 270 12.8 100930 36
2010-05-27 06:24:26 51°13.671 2°55.91 0.1 306 12.8 100930 36
2010-05-27 06:24:31 51°13.672 2°55.903 0.1 35 12.8 100930 36
2010-05-27 06:24:36 51°13.673 2°55.895 -999 55 12.8 100930 36
2010-05-27 06:24:42 51°13.674 2°55.887 0.4 21 12.8 100930 36
2010-05-27 06:24:46 51°13.675 2°55.881 0.1 54 12.8 100930 36
2010-05-27 06:24:52 51°13.676 2°55.871 0.1 22 12.8 100930 36
2010-05-27 06:24:56 51°13.677 2°55.864 0.1 49 12.8 100930 36
2010-05-27 06:25:02 51°13.679 2°55.854 0.1 21 12.8 100930 36
2010-05-27 06:25:06 51°13.68 2°55.847 0.1 308 12.8 100930 36
2010-05-27 06:25:12 51°13.681 2°55.838 0.2 270 12.8 100930 36
2010-05-27 06:25:17 51°13.683 2°55.829 0.1 306 12.8 100930 36
2010-05-27 06:25:22 51°13.684 2°55.821 0.1 257 12.8 100930 36
2010-05-27 06:25:27 51°13.685 2°55.814 0.1 306 12.8 100930 36
2010-05-27 06:25:32 51°13.686 2°55.806 -999 261 12.8 100930 36
2010-05-27 06:25:37 51°13.686 2°55.799 -999 306 12.8 100930 36
2010-05-27 06:25:42 51°13.687 2°55.792 -999 259 12.8 100930 36
2010-05-27 06:25:47 51°13.687 2°55.785 -999 306 12.8 100930 36
2010-05-27 06:25:51 51°13.687 2°55.78 -999 24 12.8 100930 35
2010-05-27 06:25:56 51°13.688 2°55.773 -999 306 12.8 100930 35
2010-05-27 06:26:01 51°13.688 2°55.767 -999 24 12.8 100930 36
2010-05-27 06:26:06 51°13.688 2°55.761 -999 306 12.8 100930 36
2010-05-27 06:26:11 51°13.688 2°55.757 1 322 12.8 100930 36
2010-05-27 06:26:16 51°13.688 2°55.752 0.2 323 12.8 100930 36
2010-05-27 06:26:20 51°13.688 2°55.749 0.1 319 12.8 100930 36
2010-05-27 06:26:25 51°13.687 2°55.746 1.1 306 12.8 100930 36
2010-05-27 06:26:30 51°13.688 2°55.744 0.6 19 12.8 100930 36
2010-05-27 06:26:35 51°13.688 2°55.742 0.1 329 12.8 100930 36
2010-05-27 06:26:40 51°13.688 2°55.74 0.1 23 12.9 100930 36
2010-05-27 06:26:45 51°13.688 2°55.739 -999 330 12.9 100930 36
2010-05-27 06:26:49 51°13.688 2°55.738 -999 329 12.8 100930 36
2010-05-27 06:26:54 51°13.688 2°55.737 -999 302 12.8 100930 36
2010-05-27 06:26:59 51°13.688 2°55.736 1.2 316 12.9 100930 36
2010-05-27 06:27:04 51°13.688 2°55.736 1.9 309 12.9 100930 36
2010-05-27 06:27:09 51°13.688 2°55.735 1.8 321 12.9 100930 36
2010-05-27 06:27:14 51°13.688 2°55.735 2.2 307 12.9 100930 36
2010-05-27 06:27:19 51°13.689 2°55.734 1.9 317 12.9 100930 38
2010-05-27 06:27:23 51°13.689 2°55.734 2.1 306 12.9 100930 38
2010-05-27 06:27:27 51°13.69 2°55.734 2.2 322 12.9 100930 37
2010-05-27 06:27:33 51°13.691 2°55.734 2.2 301 12.9 100930 37
2010-05-27 06:27:38 51°13.691 2°55.734 2.1 327 12.9 100930 37
2010-05-27 06:27:43 51°13.692 2°55.734 2.3 330 12.9 100930 37
2010-05-27 06:27:47 51°13.693 2°55.735 2.4 333 12.9 100930 37
2010-05-27 06:27:53 51°13.695 2°55.735 2.5 336 12.9 100930 37
2010-05-27 06:27:58 51°13.697 2°55.736 2.6 338 12.9 100930 35
2010-05-27 06:28:03 51°13.698 2°55.736 2.6 352 12.9 100930 35
2010-05-27 06:28:08 51°13.701 2°55.737 2.6 354 12.8 100930 37
2010-05-27 06:28:13 51°13.703 2°55.737 2.8 356 12.8 100930 37
2010-05-27 06:28:18 51°13.706 2°55.737 2.9 351 12.8 100930 35
2010-05-27 06:28:23 51°13.708 2°55.737 1.9 1 12.8 100930 35
2010-05-27 06:28:27 51°13.711 2°55.737 2.4 2 12.8 100920 34
2010-05-27 06:28:33 51°13.715 2°55.736 1.7 8 12.8 100920 34
2010-05-27 06:28:39 51°13.719 2°55.734 1.9 359 12.7 100930 37
2010-05-27 06:28:43 51°13.722 2°55.733 1.6 4 12.7 100930 37
2010-05-27 06:28:47 51°13.725 2°55.731 2.3 354 12.7 100920 35
2010-05-27 06:28:53 51°13.73 2°55.728 1.5 356 12.7 100920 35
2010-05-27 06:28:58 51°13.735 2°55.725 1.5 355 12.6 100920 35
2010-05-27 06:29:03 51°13.74 2°55.721 1.7 355 12.6 100920 35
2010-05-27 06:29:08 51°13.744 2°55.717 1.6 350 12.6 100930 37
2010-05-27 06:29:13 51°13.75 2°55.713 2.7 346 12.6 100930 37
2010-05-27 06:29:18 51°13.755 2°55.709 3.5 341 12.5 100930 36
2010-05-27 06:29:23 51°13.761 2°55.704 3.3 335 12.5 100930 36
2010-05-27 06:29:27 51°13.765 2°55.7 3.4 344 12.5 100930 37
2010-05-27 06:29:33 51°13.772 2°55.693 3.6 347 12.5 100930 37
2010-05-27 06:29:39 51°13.779 2°55.686 3.7 348 12.4 100920 36
2010-05-27 06:29:43 51°13.784 2°55.681 3.7 349 12.4 100920 36
2010-05-27 06:29:47 51°13.789 2°55.676 4.5 344 12.4 100930 37
2010-05-27 06:29:53 51°13.797 2°55.668 4.2 349 12.4 100930 37
2010-05-27 06:29:58 51°13.804 2°55.662 3.9 347 12.3 100920 37
2010-05-27 06:30:03 51°13.811 2°55.655 4.5 351 12.3 100920 37
2010-05-27 06:30:08 51°13.818 2°55.649 4.3 348 12.3 100920 35
2010-05-27 06:30:14 51°13.827 2°55.642 4.2 348 12.3 100920 35
2010-05-27 06:30:18 51°13.834 2°55.638 4.4 351 12.2 100930 35
2010-05-27 06:30:23 51°13.842 2°55.633 4.2 350 12.2 100930 35
2010-05-27 06:30:28 51°13.85 2°55.628 4.1 348 12.1 100920 36
2010-05-27 06:30:33 51°13.858 2°55.622 4.4 355 12.1 100920 36
2010-05-27 06:30:39 51°13.867 2°55.616 4.5 355 12.1 100920 35
2010-05-27 06:30:43 51°13.874 2°55.611 3.9 357 12.1 100920 35
2010-05-27 06:30:48 51°13.882 2°55.606 3.7 2 12 100920 35
2010-05-27 06:30:53 51°13.89 2°55.6 3.7 359 12 100920 35
2010-05-27 06:30:59 51°13.9 2°55.592 4 -999 12 100920 36
2010-05-27 06:31:04 51°13.908 2°55.586 3.8 357 12 100920 36
2010-05-27 06:31:08 51°13.915 2°55.581 3.8 352 11.9 100920 34
2010-05-27 06:31:13 51°13.924 2°55.575 3.7 348 11.9 100920 34
2010-05-27 06:31:18 51°13.933 2°55.568 4.4 340 11.9 100920 37
2010-05-27 06:31:23 51°13.942 2°55.561 4.4 342 11.9 100920 37
2010-05-27 06:31:28 51°13.952 2°55.554 4.4 347 11.9 100920 36
2010-05-27 06:31:33 51°13.962 2°55.547 4.3 345 11.9 100920 36
2010-05-27 06:31:38 51°13.972 2°55.54 4 346 11.8 100920 36
2010-05-27 06:31:43 51°13.983 2°55.533 3.8 349 11.8 100920 36
2010-05-27 06:31:48 51°13.993 2°55.525 3.7 344 11.9 100920 38
2010-05-27 06:31:53 51°14.005 2°55.518 4.1 343 11.9 100920 38
2010-05-27 06:31:58 51°14.016 2°55.511 4.7 345 11.8 100920 36
2010-05-27 06:32:03 51°14.028 2°55.504 4.9 346 11.8 100920 36
2010-05-27 06:32:08 51°14.04 2°55.497 4.6 350 11.8 100920 37
2010-05-27 06:32:13 51°14.052 2°55.491 4.4 348 11.8 100920 37
2010-05-27 06:32:18 51°14.064 2°55.485 4.6 344 11.8 100920 37
2010-05-27 06:32:23 51°14.076 2°55.478 4.9 346 11.8 100920 37
2010-05-27 06:32:28 51°14.088 2°55.471 5.1 344 11.8 100920 38
2010-05-27 06:32:33 51°14.1 2°55.464 5.1 343 11.8 100920 38
2010-05-27 06:32:38 51°14.113 2°55.457 5 342 11.8 100920 36
2010-05-27 06:32:44 51°14.127 2°55.447 4.5 347 11.8 100920 36
2010-05-27 06:32:48 51°14.137 2°55.441 5.1 346 11.8 100920 36
2010-05-27 06:32:54 51°14.151 2°55.429 4.8 347 11.8 100920 36
2010-05-27 06:32:59 51°14.162 2°55.419 4.8 344 11.8 100920 36
2010-05-27 06:33:04 51°14.174 2°55.409 4.9 345 11.8 100920 36
2010-05-27 06:33:08 51°14.183 2°55.4 4.4 345 11.8 100920 38
2010-05-27 06:33:14 51°14.196 2°55.387 5.5 344 11.8 100920 38
2010-05-27 06:33:19 51°14.208 2°55.376 4.6 345 11.7 100930 36
2010-05-27 06:33:24 51°14.219 2°55.364 5.5 346 11.7 100930 36
2010-05-27 06:33:28 51°14.227 2°55.355 5 343 11.7 100930 36
2010-05-27 06:33:33 51°14.238 2°55.342 5.7 346 11.7 100930 36
2010-05-27 06:33:38 51°14.248 2°55.33 5.3 348 11.7 100920 37
2010-05-27 06:33:43 51°14.259 2°55.317 5.1 349 11.7 100920 37
2010-05-27 06:33:48 51°14.269 2°55.305 5.2 350 11.7 100930 35
2010-05-27 06:33:53 51°14.28 2°55.293 5.3 349 11.7 100930 35
2010-05-27 06:33:58 51°14.29 2°55.281 5.2 350 11.6 100930 36
2010-05-27 06:34:03 51°14.301 2°55.269 5 350 11.6 100930 36
2010-05-27 06:34:08 51°14.312 2°55.258 4.6 354 11.6 100930 37
2010-05-27 06:34:13 51°14.324 2°55.247 4.4 350 11.6 100930 37
2010-05-27 06:34:18 51°14.334 2°55.234 4.4 350 11.6 100930 37
2010-05-27 06:34:24 51°14.347 2°55.218 4.5 349 11.6 100930 37
2010-05-27 06:34:28 51°14.355 2°55.207 4.7 349 11.5 100930 35
2010-05-27 06:34:33 51°14.365 2°55.193 5 349 11.5 100930 35
2010-05-27 06:34:38 51°14.376 2°55.178 4.9 349 11.6 100930 37
2010-05-27 06:34:43 51°14.386 2°55.162 5 350 11.6 100930 37
2010-05-27 06:34:48 51°14.396 2°55.146 4.8 348 11.5 100930 36
2010-05-27 06:34:53 51°14.406 2°55.129 4.6 349 11.5 100930 36
2010-05-27 06:34:58 51°14.417 2°55.114 5 348 11.5 100930 37
2010-05-27 06:35:03 51°14.429 2°55.098 5.1 343 11.5 100930 37
2010-05-27 06:35:08 51°14.441 2°55.085 5.3 343 11.5 100930 38
2010-05-27 06:35:13 51°14.453 2°55.071 5.6 346 11.5 100930 38
2010-05-27 06:35:18 51°14.466 2°55.058 5.5 349 11.5 100930 37
2010-05-27 06:35:23 51°14.479 2°55.046 5.4 350 11.5 100930 37
2010-05-27 06:35:28 51°14.492 2°55.032 5.7 352 11.5 100930 38
2010-05-27 06:35:33 51°14.504 2°55.016 5.2 351 11.5 100930 38
2010-05-27 06:35:38 51°14.516 2°55 5.3 353 11.5 100930 37
2010-05-27 06:35:43 51°14.528 2°54.982 4.8 354 11.5 100930 37
2010-05-27 06:35:48 51°14.539 2°54.964 4.8 351 11.5 100930 36
2010-05-27 06:35:53 51°14.551 2°54.945 5 349 11.5 100930 36
2010-05-27 06:35:58 51°14.563 2°54.927 4.9 347 11.5 100930 37
2010-05-27 06:36:03 51°14.575 2°54.909 6 344 11.5 100930 37
2010-05-27 06:36:08 51°14.588 2°54.894 6 343 11.5 100930 36
2010-05-27 06:36:13 51°14.6 2°54.877 5.9 344 11.5 100930 36
2010-05-27 06:36:18 51°14.613 2°54.862 6.1 343 11.5 100930 37
2010-05-27 06:36:24 51°14.629 2°54.842 5.9 345 11.5 100930 37
2010-05-27 06:36:28 51°14.639 2°54.829 5.9 345 11.5 100930 37
2010-05-27 06:36:33 51°14.652 2°54.812 5.8 345 11.5 100930 37
2010-05-27 06:36:38 51°14.665 2°54.794 5.4 345 11.4 100930 36
2010-05-27 06:36:43 51°14.677 2°54.775 5.7 345 11.4 100930 36
2010-05-27 06:36:48 51°14.69 2°54.756 5.3 344 11.5 100930 37
2010-05-27 06:36:53 51°14.702 2°54.735 5.4 279 11.5 100930 37
2010-05-27 06:36:58 51°14.714 2°54.716 5.4 345 11.4 100930 36
2010-05-27 06:37:03 51°14.726 2°54.698 5.5 345 11.4 100930 36
2010-05-27 06:37:08 51°14.739 2°54.681 5.6 346 11.4 100930 37
2010-05-27 06:37:13 51°14.752 2°54.664 5.5 345 11.4 100930 37
2010-05-27 06:37:18 51°14.766 2°54.648 5.4 347 11.4 100930 37
2010-05-27 06:37:23 51°14.781 2°54.633 5.2 343 11.4 100930 37
2010-05-27 06:37:28 51°14.794 2°54.616 5 347 11.4 100930 37
2010-05-27 06:37:33 51°14.807 2°54.598 5.6 345 11.4 100930 37
2010-05-27 06:37:38 51°14.82 2°54.579 5.4 344 11.4 100930 36
2010-05-27 06:37:43 51°14.833 2°54.559 5.5 340 11.4 100930 36
2010-05-27 06:37:48 51°14.846 2°54.54 6.1 342 11.4 100930 37
2010-05-27 06:37:53 51°14.86 2°54.522 6.8 283 11.4 100930 37
2010-05-27 06:37:58 51°14.874 2°54.505 7.1 340 11.4 100940 36
2010-05-27 06:38:03 51°14.889 2°54.489 6.5 340 11.4 100940 36
2010-05-27 06:38:08 51°14.903 2°54.473 5.9 341 11.4 100940 37
2010-05-27 06:38:13 51°14.918 2°54.457 6.1 340 11.4 100940 37
2010-05-27 06:38:18 51°14.933 2°54.442 6.3 339 11.4 100930 36
2010-05-27 06:38:23 51°14.948 2°54.428 5.9 339 11.4 100930 36
2010-05-27 06:38:28 51°14.963 2°54.414 5.7 338 11.4 100930 36
2010-05-27 06:38:33 51°14.978 2°54.401 6.2 341 11.4 100930 36
2010-05-27 06:38:38 51°14.993 2°54.389 6.1 341 11.4 100940 36
2010-05-27 06:38:43 51°15.008 2°54.377 6.4 342 11.4 100940 36
2010-05-27 06:38:48 51°15.024 2°54.365 5.7 340 11.4 100930 36
2010-05-27 06:38:53 51°15.039 2°54.353 6.3 286 11.4 100930 36
2010-05-27 06:38:58 51°15.055 2°54.342 5.9 341 11.4 100940 37
2010-05-27 06:39:03 51°15.07 2°54.329 6.2 339 11.4 100940 37
2010-05-27 06:39:08 51°15.086 2°54.316 6.5 341 11.4 100940 36
2010-05-27 06:39:13 51°15.102 2°54.302 6.4 340 11.4 100940 36
2010-05-27 06:39:18 51°15.117 2°54.287 6.7 340 11.4 100950 36
2010-05-27 06:39:23 51°15.132 2°54.272 6.8 338 11.4 100950 36
2010-05-27 06:39:28 51°15.147 2°54.256 6.9 339 11.4 100950 36
2010-05-27 06:39:33 51°15.162 2°54.24 6.2 338 11.4 100950 36
2010-05-27 06:39:38 51°15.177 2°54.224 6.3 339 11.4 100940 35
2010-05-27 06:39:43 51°15.192 2°54.209 6.5 338 11.4 100940 35
2010-05-27 06:39:48 51°15.207 2°54.193 6.5 338 11.4 100940 36
2010-05-27 06:39:53 51°15.223 2°54.178 6.5 342 11.4 100940 36
2010-05-27 06:39:58 51°15.238 2°54.162 6.3 339 11.4 100930 35
2010-05-27 06:40:03 51°15.253 2°54.146 7.3 342 11.4 100930 35
2010-05-27 06:40:08 51°15.268 2°54.129 6.8 343 11.4 100940 36
2010-05-27 06:40:13 51°15.282 2°54.113 6.1 342 11.4 100940 36
2010-05-27 06:40:18 51°15.297 2°54.096 6.2 341 11.5 100940 36
2010-05-27 06:40:23 51°15.312 2°54.08 7 339 11.5 100940 36
2010-05-27 06:40:28 51°15.327 2°54.063 7.4 338 11.5 100940 37
2010-05-27 06:40:33 51°15.342 2°54.046 6.9 340 11.5 100940 37
2010-05-27 06:40:38 51°15.357 2°54.029 6.8 341 11.5 100940 37
2010-05-27 06:40:43 51°15.371 2°54.011 7.1 342 11.5 100940 37
2010-05-27 06:40:48 51°15.386 2°53.994 7.7 340 11.5 100940 36
2010-05-27 06:40:53 51°15.4 2°53.976 6.8 285 11.5 100940 36
2010-05-27 06:40:58 51°15.414 2°53.958 6.8 342 11.5 100940 37
2010-05-27 06:41:03 51°15.429 2°53.94 6.6 342 11.5 100940 37
2010-05-27 06:41:08 51°15.444 2°53.923 7 341 11.5 100940 37
2010-05-27 06:41:13 51°15.458 2°53.906 6.8 343 11.5 100940 37
2010-05-27 06:41:18 51°15.473 2°53.888 6.3 341 11.5 100930 37
2010-05-27 06:41:23 51°15.487 2°53.871 6.8 342 11.5 100930 37
2010-05-27 06:41:28 51°15.502 2°53.853 6.4 342 11.5 100940 36
2010-05-27 06:41:32 51°15.513 2°53.839 6.5 342 11.5 100940 36
2010-05-27 06:41:38 51°15.531 2°53.818 6.9 340 11.5 100940 35
2010-05-27 06:41:43 51°15.545 2°53.801 7.8 342 11.5 100940 35
2010-05-27 06:41:48 51°15.56 2°53.783 7.5 342 11.5 100940 35
2010-05-27 06:41:53 51°15.574 2°53.766 7.2 286 11.5 100940 35
2010-05-27 06:41:57 51°15.586 2°53.752 8.1 339 11.5 100940 36
2010-05-27 06:42:03 51°15.603 2°53.73 6.3 342 11.5 100940 36
2010-05-27 06:42:09 51°15.621 2°53.709 6.7 342 11.5 100940 35
2010-05-27 06:42:13 51°15.632 2°53.695 6.8 339 11.5 100940 35
2010-05-27 06:42:18 51°15.647 2°53.678 6.7 340 11.5 100930 35
2010-05-27 06:42:24 51°15.664 2°53.657 6.5 339 11.5 100930 35
2010-05-27 06:42:29 51°15.679 2°53.64 6.5 339 11.5 100930 37
2010-05-27 06:42:33 51°15.69 2°53.625 6.4 340 11.5 100930 37
2010-05-27 06:42:38 51°15.705 2°53.608 6.7 341 11.5 100940 36
2010-05-27 06:42:43 51°15.719 2°53.59 7 339 11.5 100940 36
2010-05-27 06:42:48 51°15.734 2°53.573 7.4 342 11.5 100940 35
2010-05-27 06:42:53 51°15.748 2°53.555 7.4 281 11.5 100940 35
2010-05-27 06:42:57 51°15.76 2°53.541 6.3 342 11.5 100940 35
2010-05-27 06:43:03 51°15.777 2°53.52 6.4 344 11.5 100940 35
2010-05-27 06:43:09 51°15.795 2°53.5 6.8 342 11.5 100940 37
2010-05-27 06:43:13 51°15.807 2°53.487 6.6 341 11.5 100940 37
2010-05-27 06:43:18 51°15.822 2°53.471 6.9 339 11.5 100930 35
2010-05-27 06:43:23 51°15.837 2°53.455 7.4 338 11.5 100930 35
2010-05-27 06:43:28 51°15.852 2°53.439 7 338 11.5 100930 36
2010-05-27 06:43:33 51°15.867 2°53.423 7.4 338 11.5 100930 36
2010-05-27 06:43:37 51°15.88 2°53.411 6.7 340 11.6 100930 35
2010-05-27 06:43:43 51°15.898 2°53.392 7.3 339 11.6 100930 35
2010-05-27 06:43:48 51°15.913 2°53.376 7 339 11.6 100940 35
2010-05-27 06:43:53 51°15.928 2°53.361 6.2 285 11.6 100940 35
2010-05-27 06:43:58 51°15.943 2°53.345 6.5 339 11.6 100940 36
2010-05-27 06:44:02 51°15.955 2°53.333 7 340 11.6 100940 36
2010-05-27 06:44:08 51°15.973 2°53.315 6.8 339 11.6 100940 37
2010-05-27 06:44:14 51°15.992 2°53.296 7.6 339 11.6 100940 37
2010-05-27 06:44:18 51°16.004 2°53.284 7.5 339 11.5 100940 35
2010-05-27 06:44:23 51°16.019 2°53.269 7.3 340 11.5 100940 35
2010-05-27 06:44:28 51°16.034 2°53.254 6.8 340 11.6 100940 35
2010-05-27 06:44:34 51°16.053 2°53.237 7.2 340 11.6 100940 35
2010-05-27 06:44:38 51°16.065 2°53.225 7.8 339 11.6 100940 37
2010-05-27 06:44:43 51°16.08 2°53.211 7.3 342 11.6 100940 37
2010-05-27 06:44:48 51°16.096 2°53.196 7.3 340 11.6 100940 37
2010-05-27 06:44:53 51°16.111 2°53.182 7.2 282 11.6 100940 37
2010-05-27 06:44:58 51°16.127 2°53.169 7.1 340 11.6 100940 36
2010-05-27 06:45:03 51°16.142 2°53.154 7.4 338 11.6 100940 36
2010-05-27 06:45:08 51°16.157 2°53.14 7.5 339 11.6 100940 36
2010-05-27 06:45:13 51°16.173 2°53.126 7.7 338 11.6 100940 36
2010-05-27 06:45:18 51°16.189 2°53.111 7.7 339 11.6 100940 36
2010-05-27 06:45:22 51°16.201 2°53.1 7 341 11.6 100940 36
2010-05-27 06:45:28 51°16.22 2°53.085 7.2 340 11.6 100940 37
2010-05-27 06:45:33 51°16.236 2°53.073 7.6 340 11.6 100940 37
2010-05-27 06:45:38 51°16.251 2°53.062 7.2 340 11.6 100940 37
2010-05-27 06:45:43 51°16.267 2°53.05 6.5 341 11.6 100940 37
2010-05-27 06:45:48 51°16.283 2°53.038 6.2 339 11.6 100940 37
2010-05-27 06:45:53 51°16.299 2°53.026 7 285 11.6 100940 37
2010-05-27 06:45:58 51°16.314 2°53.014 6.5 341 11.6 100940 36
2010-05-27 06:46:03 51°16.33 2°53.001 6.5 341 11.6 100940 36
2010-05-27 06:46:08 51°16.346 2°52.99 6.2 339 11.6 100940 37
2010-05-27 06:46:13 51°16.362 2°52.977 6.5 340 11.6 100940 37
2010-05-27 06:46:18 51°16.378 2°52.965 6.5 340 11.6 100940 37
2010-05-27 06:46:23 51°16.393 2°52.952 6.7 342 11.6 100940 37
2010-05-27 06:46:28 51°16.409 2°52.94 7.1 341 11.6 100940 37
2010-05-27 06:46:34 51°16.428 2°52.924 7.4 340 11.6 100940 37
2010-05-27 06:46:38 51°16.44 2°52.914 7.4 338 11.6 100940 36
2010-05-27 06:46:43 51°16.456 2°52.902 8.9 337 11.6 100940 36
2010-05-27 06:46:48 51°16.472 2°52.891 8.2 341 11.6 100940 36
2010-05-27 06:46:53 51°16.488 2°52.878 8 282 11.6 100940 36
2010-05-27 06:46:58 51°16.503 2°52.867 7.4 338 11.6 100940 37
2010-05-27 06:47:03 51°16.519 2°52.854 7.9 338 11.6 100940 37
2010-05-27 06:47:08 51°16.535 2°52.842 7.4 338 11.6 100940 36
2010-05-27 06:47:13 51°16.551 2°52.831 7.2 340 11.6 100940 36
2010-05-27 06:47:18 51°16.566 2°52.818 6.9 339 11.6 100940 37
2010-05-27 06:47:23 51°16.582 2°52.806 7.1 338 11.6 100940 37
2010-05-27 06:47:28 51°16.598 2°52.794 7 338 11.6 100940 37
2010-05-27 06:47:33 51°16.613 2°52.782 7.1 342 11.6 100940 37
2010-05-27 06:47:38 51°16.629 2°52.771 7.5 341 11.6 100940 37
2010-05-27 06:47:43 51°16.644 2°52.758 7.2 341 11.6 100940 37
2010-05-27 06:47:48 51°16.66 2°52.746 7 341 11.6 100940 37
2010-05-27 06:47:53 51°16.676 2°52.734 6.7 283 11.6 100940 37
2010-05-27 06:47:58 51°16.692 2°52.723 7.3 338 11.6 100950 36
2010-05-27 06:48:03 51°16.707 2°52.711 6.9 341 11.6 100950 36
2010-05-27 06:48:08 51°16.723 2°52.699 6.6 339 11.6 100940 37
2010-05-27 06:48:13 51°16.738 2°52.687 7.2 340 11.6 100940 37
2010-05-27 06:48:18 51°16.753 2°52.676 7 340 11.6 100950 36
2010-05-27 06:48:23 51°16.769 2°52.664 7.5 341 11.6 100950 36
2010-05-27 06:48:28 51°16.784 2°52.652 7.1 339 11.6 100940 36
2010-05-27 06:48:34 51°16.802 2°52.638 6.4 341 11.6 100940 36
2010-05-27 06:48:38 51°16.815 2°52.629 6.6 342 11.6 100950 37
2010-05-27 06:48:43 51°16.83 2°52.617 7.2 339 11.6 100950 37
2010-05-27 06:48:48 51°16.845 2°52.606 7.1 339 11.6 100950 37
2010-05-27 06:48:53 51°16.86 2°52.594 6.8 285 11.6 100950 37
2010-05-27 06:48:58 51°16.876 2°52.583 6.8 338 11.6 100950 38
2010-05-27 06:49:03 51°16.891 2°52.57 6.9 339 11.6 100950 38
2010-05-27 06:49:08 51°16.906 2°52.558 8.1 339 11.6 100950 37
2010-05-27 06:49:13 51°16.921 2°52.546 7.3 338 11.6 100950 37
2010-05-27 06:49:18 51°16.937 2°52.534 7.1 338 11.6 100940 37
2010-05-27 06:49:23 51°16.952 2°52.521 7.1 336 11.6 100940 37
2010-05-27 06:49:28 51°16.967 2°52.509 7.7 337 11.6 100950 37
2010-05-27 06:49:33 51°16.982 2°52.497 8.1 283 11.6 100950 37
2010-05-27 06:49:38 51°16.997 2°52.486 7 337 11.6 100950 37
2010-05-27 06:49:43 51°17.013 2°52.474 7.4 336 11.6 100950 37
2010-05-27 06:49:48 51°17.028 2°52.462 7.1 338 11.6 100950 37
2010-05-27 06:49:53 51°17.043 2°52.45 7.3 279 11.6 100950 37
2010-05-27 06:49:58 51°17.058 2°52.437 8.1 336 11.6 100950 37
2010-05-27 06:50:02 51°17.07 2°52.427 8.3 281 11.6 100950 37
2010-05-27 06:50:08 51°17.089 2°52.412 7.3 338 11.6 100950 36
2010-05-27 06:50:13 51°17.104 2°52.4 8.1 339 11.6 100950 36
2010-05-27 06:50:18 51°17.119 2°52.388 8.1 338 11.6 100950 37
2010-05-27 06:50:23 51°17.134 2°52.375 7.8 279 11.6 100950 37
2010-05-27 06:50:29 51°17.153 2°52.361 8.3 338 11.6 100950 36
2010-05-27 06:50:34 51°17.168 2°52.348 8.4 284 11.6 100950 36
2010-05-27 06:50:38 51°17.18 2°52.338 7.5 338 11.6 100950 36
2010-05-27 06:50:43 51°17.196 2°52.325 7.1 285 11.6 100950 36
2010-05-27 06:50:48 51°17.211 2°52.313 8.3 336 11.6 100950 37
2010-05-27 06:50:53 51°17.226 2°52.3 8.8 339 11.6 100950 37
2010-05-27 06:50:58 51°17.241 2°52.288 7.7 340 11.6 100950 37
2010-05-27 06:51:03 51°17.256 2°52.275 8.5 279 11.6 100950 37
2010-05-27 06:51:08 51°17.272 2°52.262 8.6 338 11.6 100950 38
2010-05-27 06:51:13 51°17.287 2°52.25 8.2 284 11.6 100950 38
2010-05-27 06:51:18 51°17.302 2°52.237 7.9 341 11.6 100950 38
2010-05-27 06:51:23 51°17.318 2°52.223 7.4 285 11.6 100950 38
2010-05-27 06:51:28 51°17.332 2°52.207 7.2 342 11.6 100940 37
2010-05-27 06:51:33 51°17.346 2°52.19 8.2 285 11.6 100940 37
2010-05-27 06:51:38 51°17.358 2°52.17 7 343 11.6 100950 38
2010-05-27 06:51:43 51°17.37 2°52.148 7.4 282 11.6 100950 38
2010-05-27 06:51:48 51°17.38 2°52.125 7 346 11.6 100950 37
2010-05-27 06:51:53 51°17.389 2°52.101 6.7 283 11.6 100950 37
2010-05-27 06:51:58 51°17.399 2°52.077 7.3 343 11.5 100940 38
2010-05-27 06:52:03 51°17.408 2°52.053 7 343 11.5 100940 38
2010-05-27 06:52:08 51°17.417 2°52.028 7.1 346 11.5 100950 36
2010-05-27 06:52:13 51°17.426 2°52.002 6.1 284 11.5 100950 36
2010-05-27 06:52:18 51°17.434 2°51.977 7.1 343 11.5 100950 37
2010-05-27 06:52:23 51°17.443 2°51.952 6.5 283 11.5 100950 37
2010-05-27 06:52:28 51°17.452 2°51.927 7 343 11.5 100950 35
2010-05-27 06:52:33 51°17.46 2°51.902 7.8 345 11.5 100950 35
2010-05-27 06:52:38 51°17.469 2°51.876 7.5 344 11.5 100950 37
2010-05-27 06:52:43 51°17.478 2°51.851 7.5 285 11.5 100950 37
2010-05-27 06:52:49 51°17.488 2°51.821 7 345 11.5 100950 38
2010-05-27 06:52:54 51°17.497 2°51.795 6.2 278 11.5 100950 38
2010-05-27 06:52:58 51°17.504 2°51.775 6.3 345 11.5 100950 37
2010-05-27 06:53:03 51°17.512 2°51.749 6.6 285 11.5 100950 37
2010-05-27 06:53:08 51°17.521 2°51.724 7.3 347 11.4 100950 37
2010-05-27 06:53:13 51°17.53 2°51.699 6.6 347 11.4 100950 37
2010-05-27 06:53:18 51°17.539 2°51.673 6 346 11.4 100950 36
2010-05-27 06:53:22 51°17.546 2°51.653 7.1 344 11.4 100950 36
2010-05-27 06:53:28 51°17.556 2°51.622 7 344 11.4 100950 36
2010-05-27 06:53:33 51°17.564 2°51.597 6.5 279 11.4 100950 36
2010-05-27 06:53:38 51°17.573 2°51.571 7.3 344 11.4 100950 38
2010-05-27 06:53:43 51°17.582 2°51.546 6.7 283 11.4 100950 38
2010-05-27 06:53:48 51°17.59 2°51.52 7 342 11.4 100960 36
2010-05-27 06:53:53 51°17.598 2°51.495 7 279 11.4 100960 36
2010-05-27 06:53:58 51°17.607 2°51.469 6.9 345 11.4 100960 38
2010-05-27 06:54:03 51°17.616 2°51.443 7.1 345 11.4 100960 38
2010-05-27 06:54:08 51°17.625 2°51.418 7.4 344 11.4 100960 37
2010-05-27 06:54:13 51°17.633 2°51.393 7.1 279 11.4 100960 37
2010-05-27 06:54:18 51°17.642 2°51.367 7.1 345 11.4 100960 38
2010-05-27 06:54:22 51°17.649 2°51.347 6.4 344 11.4 100960 38
2010-05-27 06:54:28 51°17.66 2°51.316 7.3 344 11.4 100950 37
2010-05-27 06:54:33 51°17.668 2°51.291 7.4 345 11.4 100950 37
2010-05-27 06:54:38 51°17.677 2°51.266 7 344 11.3 100950 37
2010-05-27 06:54:43 51°17.686 2°51.24 6.7 284 11.3 100950 37
2010-05-27 06:54:49 51°17.697 2°51.209 6.5 347 11.4 100950 37
2010-05-27 06:54:54 51°17.705 2°51.183 6.6 346 11.4 100950 37
2010-05-27 06:54:58 51°17.712 2°51.164 6 347 11.3 100950 36
2010-05-27 06:55:03 51°17.72 2°51.139 6.4 346 11.3 100950 36
2010-05-27 06:55:08 51°17.728 2°51.114 5.8 345 11.3 100960 35
2010-05-27 06:55:13 51°17.736 2°51.091 5.5 347 11.3 100960 35
2010-05-27 06:55:18 51°17.744 2°51.069 5.3 346 11.3 100950 37
2010-05-27 06:55:22 51°17.75 2°51.052 6.3 347 11.3 100950 37
2010-05-27 06:55:28 51°17.758 2°51.028 5.6 348 11.3 100950 38
2010-05-27 06:55:33 51°17.764 2°51.009 5.4 346 11.3 100950 38
2010-05-27 06:55:38 51°17.77 2°50.99 5.5 349 11.3 100950 37
2010-05-27 06:55:43 51°17.774 2°50.972 5 280 11.3 100950 37
2010-05-27 06:55:48 51°17.776 2°50.953 4.7 354 11.3 100960 38
2010-05-27 06:55:53 51°17.777 2°50.936 4 353 11.3 100960 38
2010-05-27 06:55:58 51°17.777 2°50.919 3.3 358 11.3 100960 38
2010-05-27 06:56:03 51°17.776 2°50.904 3.4 2 11.3 100960 38
2010-05-27 06:56:08 51°17.773 2°50.889 3.2 8 11.3 100950 36
2010-05-27 06:56:13 51°17.771 2°50.874 3.1 11 11.3 100950 36
2010-05-27 06:56:18 51°17.767 2°50.861 2.9 16 11.3 100960 36
2010-05-27 06:56:23 51°17.764 2°50.848 2.7 22 11.3 100960 36
2010-05-27 06:56:28 51°17.759 2°50.836 2.4 25 11.3 100960 36
2010-05-27 06:56:33 51°17.753 2°50.825 1.8 24 11.3 100960 36
2010-05-27 06:56:38 51°17.747 2°50.815 1.3 31 11.3 100960 38
2010-05-27 06:56:43 51°17.741 2°50.806 1.3 35 11.3 100960 38
2010-05-27 06:56:48 51°17.734 2°50.798 1.1 40 11.3 100960 36
2010-05-27 06:56:53 51°17.726 2°50.791 1.2 78 11.3 100960 36
2010-05-27 06:56:58 51°17.719 2°50.786 0.1 28 11.4 100960 36
2010-05-27 06:57:03 51°17.712 2°50.781 0.1 78 11.4 100960 36
2010-05-27 06:57:08 51°17.704 2°50.778 0.8 258 11.4 100960 38
2010-05-27 06:57:13 51°17.697 2°50.775 1.7 303 11.4 100960 38
2010-05-27 06:57:18 51°17.69 2°50.773 1.8 258 11.4 100960 37
2010-05-27 06:57:23 51°17.683 2°50.772 1 280 11.4 100960 37
2010-05-27 06:57:28 51°17.676 2°50.773 1.5 259 11.5 100970 38
2010-05-27 06:57:33 51°17.669 2°50.774 2.8 307 11.5 100970 38
2010-05-27 06:57:38 51°17.662 2°50.776 2.9 258 11.4 100960 38
2010-05-27 06:57:43 51°17.656 2°50.779 2.8 302 11.4 100960 38
2010-05-27 06:57:48 51°17.65 2°50.782 3 252 11.5 100960 35
2010-05-27 06:57:53 51°17.645 2°50.787 3.1 279 11.5 100960 35
2010-05-27 06:57:58 51°17.639 2°50.792 3.4 249 11.5 100960 37
2010-05-27 06:58:03 51°17.635 2°50.798 3.5 302 11.5 100960 37
2010-05-27 06:58:08 51°17.631 2°50.804 3.7 21 11.5 100960 38
2010-05-27 06:58:13 51°17.628 2°50.811 3.7 285 11.5 100960 38
2010-05-27 06:58:18 51°17.625 2°50.817 4 25 11.5 100960 37
2010-05-27 06:58:23 51°17.623 2°50.822 4.1 301 11.5 100960 37
2010-05-27 06:58:28 51°17.621 2°50.828 4.1 27 11.5 100960 38
2010-05-27 06:58:33 51°17.62 2°50.833 4.3 284 11.5 100960 38
2010-05-27 06:58:38 51°17.618 2°50.837 3.8 22 11.5 100960 38
2010-05-27 06:58:43 51°17.617 2°50.842 3.6 309 11.5 100960 38
2010-05-27 06:58:48 51°17.616 2°50.846 3.8 20 11.5 100960 37
2010-05-27 06:58:53 51°17.615 2°50.849 3.4 306 11.5 100960 37
2010-05-27 06:58:58 51°17.613 2°50.853 3.6 29 11.5 100960 37
2010-05-27 06:59:03 51°17.613 2°50.855 3.3 285 11.5 100960 37
2010-05-27 06:59:08 51°17.611 2°50.857 3.4 28 11.6 100960 36
2010-05-27 06:59:13 51°17.61 2°50.858 3.3 306 11.6 100960 36
2010-05-27 06:59:18 51°17.609 2°50.86 3.3 318 11.5 100960 38
2010-05-27 06:59:23 51°17.608 2°50.861 3.2 277 11.5 100960 38
2010-05-27 06:59:28 51°17.607 2°50.862 3.3 316 11.5 100960 38
2010-05-27 06:59:33 51°17.607 2°50.862 3 322 11.5 100960 38
2010-05-27 06:59:38 51°17.605 2°50.863 3 318 11.5 100960 36
2010-05-27 06:59:43 51°17.604 2°50.863 3.1 279 11.5 100960 36
2010-05-27 06:59:48 51°17.603 2°50.864 3.4 321 11.5 100960 38
2010-05-27 06:59:54 51°17.602 2°50.863 2.9 283 11.5 100960 38
2010-05-27 06:59:58 51°17.601 2°50.863 2.7 318 11.5 100960 36
2010-05-27 07:00:03 51°17.6 2°50.863 3.8 284 11.5 100960 36
2010-05-27 07:00:08 51°17.598 2°50.862 3.2 20 11.5 100960 36
2010-05-27 07:00:14 51°17.597 2°50.861 3.9 282 11.5 100960 36
2010-05-27 07:00:18 51°17.596 2°50.861 3.6 26 11.6 100960 36
2010-05-27 07:00:23 51°17.595 2°50.86 3.4 286 11.6 100960 36
2010-05-27 07:00:28 51°17.593 2°50.859 3 321 11.6 100960 35
2010-05-27 07:00:33 51°17.592 2°50.859 3.4 284 11.6 100960 35
2010-05-27 07:00:38 51°17.591 2°50.858 2.9 319 11.6 100970 36
2010-05-27 07:00:44 51°17.589 2°50.858 3.5 278 11.6 100970 36
2010-05-27 07:00:48 51°17.589 2°50.857 2.8 319 11.6 100960 38
2010-05-27 07:00:53 51°17.587 2°50.856 3 285 11.6 100960 38
2010-05-27 07:00:58 51°17.586 2°50.855 2.8 320 11.6 100960 36
2010-05-27 07:01:03 51°17.585 2°50.855 3.2 279 11.6 100960 36
2010-05-27 07:01:08 51°17.584 2°50.854 3.1 320 11.6 100960 36
2010-05-27 07:01:13 51°17.582 2°50.853 3.1 284 11.6 100960 36
2010-05-27 07:01:18 51°17.582 2°50.852 2.9 324 11.6 100960 36
2010-05-27 07:01:23 51°17.58 2°50.852 2.9 279 11.6 100960 36
2010-05-27 07:01:28 51°17.579 2°50.85 3.1 322 11.6 100970 37
2010-05-27 07:01:34 51°17.577 2°50.85 3.3 286 11.6 100970 37
2010-05-27 07:01:38 51°17.577 2°50.848 3.6 324 11.6 100960 37
2010-05-27 07:01:42 51°17.576 2°50.849 3.5 285 11.6 100960 37
2010-05-27 07:01:48 51°17.575 2°50.848 3.1 324 11.6 100970 36
2010-05-27 07:01:54 51°17.575 2°50.848 3.1 -999 11.6 100970 36
2010-05-27 07:01:58 51°17.575 2°50.847 4.2 324 11.6 100960 37
2010-05-27 07:02:03 51°17.574 2°50.847 3.9 284 11.6 100960 37
2010-05-27 07:02:08 51°17.575 2°50.847 3.9 324 11.6 100970 36
2010-05-27 07:02:14 51°17.575 2°50.847 3.7 278 11.6 100970 36
2010-05-27 07:02:18 51°17.575 2°50.846 3.6 327 11.6 100970 37
2010-05-27 07:02:23 51°17.576 2°50.846 3.7 280 11.6 100970 37
2010-05-27 07:02:28 51°17.576 2°50.846 3.7 321 11.6 100970 38
2010-05-27 07:02:33 51°17.577 2°50.846 3.8 285 11.6 100970 38
2010-05-27 07:02:38 51°17.577 2°50.846 3.9 324 11.7 100970 36
2010-05-27 07:02:42 51°17.577 2°50.845 3.6 285 11.7 100970 36
2010-05-27 07:02:48 51°17.577 2°50.845 4 326 11.7 100970 38
2010-05-27 07:02:53 51°17.577 2°50.845 3.7 285 11.7 100970 38
2010-05-27 07:02:58 51°17.577 2°50.844 3.7 331 11.7 100970 38
2010-05-27 07:03:03 51°17.578 2°50.844 3.9 282 11.7 100970 38
2010-05-27 07:03:08 51°17.578 2°50.843 3.5 333 11.7 100970 37
2010-05-27 07:03:13 51°17.578 2°50.843 3.3 282 11.7 100970 37
2010-05-27 07:03:18 51°17.578 2°50.842 3.4 331 11.7 100970 36
2010-05-27 07:03:23 51°17.578 2°50.842 3.3 278 11.7 100970 36
2010-05-27 07:03:28 51°17.578 2°50.841 3.6 330 11.7 100970 36
2010-05-27 07:03:33 51°17.578 2°50.841 3.5 284 11.7 100970 36
2010-05-27 07:03:38 51°17.578 2°50.841 3.2 330 11.6 100970 36
2010-05-27 07:03:42 51°17.578 2°50.841 3.4 283 11.6 100970 36
2010-05-27 07:03:48 51°17.578 2°50.84 3.3 328 11.6 100970 36
2010-05-27 07:03:53 51°17.578 2°50.84 2.6 280 11.6 100970 36
2010-05-27 07:03:58 51°17.578 2°50.84 3.1 327 11.6 100970 36
2010-05-27 07:04:03 51°17.578 2°50.839 3.2 286 11.6 100970 36
2010-05-27 07:04:08 51°17.579 2°50.839 3.4 328 11.6 100970 36
2010-05-27 07:04:14 51°17.579 2°50.839 3.1 286 11.6 100970 36
2010-05-27 07:04:18 51°17.579 2°50.838 3.5 328 11.6 100970 36
2010-05-27 07:04:23 51°17.579 2°50.839 2.2 280 11.6 100970 36
2010-05-27 07:04:28 51°17.579 2°50.839 3.5 328 11.6 100970 36
2010-05-27 07:04:34 51°17.579 2°50.839 3.7 284 11.6 100970 36
2010-05-27 07:04:38 51°17.579 2°50.839 3.6 326 11.6 100970 36
2010-05-27 07:04:42 51°17.579 2°50.839 3.8 323 11.6 100970 36
2010-05-27 07:04:48 51°17.579 2°50.839 3.5 326 11.6 100970 38
2010-05-27 07:04:53 51°17.579 2°50.839 3.3 284 11.6 100970 38
2010-05-27 07:04:58 51°17.579 2°50.84 3 325 11.6 100970 37
2010-05-27 07:05:03 51°17.579 2°50.84 3.2 279 11.6 100970 37
2010-05-27 07:05:08 51°17.579 2°50.84 2.5 322 11.6 100970 37
2010-05-27 07:05:13 51°17.579 2°50.84 2.6 283 11.6 100970 37
2010-05-27 07:05:18 51°17.578 2°50.84 2.7 319 11.6 100970 36
2010-05-27 07:05:23 51°17.578 2°50.84 2.2 283 11.6 100970 36
2010-05-27 07:05:28 51°17.578 2°50.84 2.7 322 11.6 100970 36
2010-05-27 07:05:33 51°17.578 2°50.84 2.8 283 11.6 100970 36
2010-05-27 07:05:38 51°17.578 2°50.84 2.3 319 11.6 100970 36
2010-05-27 07:05:44 51°17.578 2°50.841 2.3 285 11.6 100970 36
2010-05-27 07:05:49 51°17.578 2°50.841 2.7 321 11.6 100980 35
2010-05-27 07:05:54 51°17.577 2°50.842 2.9 280 11.6 100980 35
2010-05-27 07:05:58 51°17.578 2°50.841 3.1 327 11.6 100970 36
2010-05-27 07:06:03 51°17.577 2°50.842 2.7 283 11.6 100970 36
2010-05-27 07:06:08 51°17.577 2°50.842 2.9 320 11.6 100980 36
2010-05-27 07:06:13 51°17.577 2°50.842 2.8 278 11.6 100980 36
2010-05-27 07:06:18 51°17.577 2°50.842 2.7 325 11.6 100980 38
2010-05-27 07:06:23 51°17.577 2°50.843 3.1 282 11.6 100980 38
2010-05-27 07:06:28 51°17.577 2°50.843 3.7 323 11.6 100980 36
2010-05-27 07:06:33 51°17.577 2°50.843 4.2 301 11.6 100980 36
2010-05-27 07:06:38 51°17.577 2°50.843 4 327 11.7 100970 38
2010-05-27 07:06:43 51°17.577 2°50.843 4 282 11.7 100970 38
2010-05-27 07:06:48 51°17.577 2°50.843 4 326 11.7 100980 36
2010-05-27 07:06:53 51°17.577 2°50.843 3.4 280 11.7 100980 36
2010-05-27 07:06:58 51°17.577 2°50.843 3.6 327 11.7 100970 36
2010-05-27 07:07:03 51°17.577 2°50.843 3.5 279 11.7 100970 36
2010-05-27 07:07:08 51°17.577 2°50.843 3.3 326 11.7 100970 37
2010-05-27 07:07:13 51°17.577 2°50.843 3.6 281 11.7 100970 37
2010-05-27 07:07:18 51°17.577 2°50.843 3.5 327 11.7 100970 37
2010-05-27 07:07:23 51°17.577 2°50.843 3.2 328 11.7 100970 37
2010-05-27 07:07:28 51°17.577 2°50.843 3.8 328 11.7 100980 38
2010-05-27 07:07:33 51°17.577 2°50.842 3.5 284 11.7 100980 38
2010-05-27 07:07:38 51°17.577 2°50.842 3.3 327 11.6 100980 36
2010-05-27 07:07:43 51°17.577 2°50.842 3.5 304 11.6 100980 36
2010-05-27 07:07:48 51°17.577 2°50.842 3.7 322 11.6 100970 36
2010-05-27 07:07:53 51°17.577 2°50.842 3.6 -999 11.6 100970 36
2010-05-27 07:07:58 51°17.578 2°50.841 3.7 329 11.6 100980 37
2010-05-27 07:08:03 51°17.578 2°50.841 3.4 283 11.6 100980 37
2010-05-27 07:08:08 51°17.578 2°50.841 3.7 326 11.6 100980 37
2010-05-27 07:08:13 51°17.578 2°50.841 3.7 324 11.6 100980 37
2010-05-27 07:08:18 51°17.578 2°50.841 3.8 323 11.6 100970 38
2010-05-27 07:08:23 51°17.578 2°50.841 3.9 286 11.6 100970 38
2010-05-27 07:08:28 51°17.578 2°50.841 3.7 325 11.6 100980 36
2010-05-27 07:08:34 51°17.578 2°50.841 3.8 286 11.6 100980 36
2010-05-27 07:08:38 51°17.578 2°50.84 4.2 328 11.6 100980 36
2010-05-27 07:08:43 51°17.578 2°50.841 3.8 284 11.6 100980 36
2010-05-27 07:08:48 51°17.578 2°50.84 3.6 327 11.6 100970 38
2010-05-27 07:08:54 51°17.578 2°50.841 3.2 280 11.6 100970 38
2010-05-27 07:08:58 51°17.579 2°50.84 3.2 326 11.6 100980 38
2010-05-27 07:09:03 51°17.578 2°50.841 3.3 286 11.6 100980 38
2010-05-27 07:09:08 51°17.579 2°50.84 3.7 320 11.6 100970 36
2010-05-27 07:09:13 51°17.579 2°50.84 4.2 280 11.6 100970 36
2010-05-27 07:09:18 51°17.578 2°50.84 4.4 325 11.6 100980 36
2010-05-27 07:09:23 51°17.579 2°50.84 3.8 279 11.6 100980 36
2010-05-27 07:09:28 51°17.578 2°50.84 4 321 11.6 100980 36
2010-05-27 07:09:33 51°17.578 2°50.84 4 284 11.6 100980 36
2010-05-27 07:09:38 51°17.578 2°50.84 4 320 11.6 100970 36
2010-05-27 07:09:43 51°17.578 2°50.84 3.7 284 11.6 100970 36
2010-05-27 07:09:48 51°17.578 2°50.84 3.8 322 11.6 100980 37
2010-05-27 07:09:53 51°17.579 2°50.839 3.7 279 11.6 100980 37
2010-05-27 07:09:58 51°17.578 2°50.84 3.5 320 11.6 100970 37
2010-05-27 07:10:03 51°17.579 2°50.84 3.7 308 11.6 100970 37
2010-05-27 07:10:08 51°17.579 2°50.839 3.8 321 11.6 100980 36
2010-05-27 07:10:13 51°17.579 2°50.839 3.5 279 11.6 100980 36
2010-05-27 07:10:18 51°17.579 2°50.839 3.4 321 11.6 100980 37
2010-05-27 07:10:23 51°17.579 2°50.839 3.8 279 11.6 100980 37
2010-05-27 07:10:28 51°17.579 2°50.839 3.5 321 11.6 100970 36
2010-05-27 07:10:33 51°17.579 2°50.839 3.6 283 11.6 100970 36
2010-05-27 07:10:38 51°17.579 2°50.84 3.5 317 11.6 100980 38
2010-05-27 07:10:43 51°17.579 2°50.84 3.6 280 11.6 100980 38
2010-05-27 07:10:48 51°17.578 2°50.84 3.4 319 11.6 100980 36
2010-05-27 07:10:53 51°17.578 2°50.84 3.6 324 11.6 100980 36
2010-05-27 07:10:58 51°17.578 2°50.84 4.2 325 11.6 100980 36
2010-05-27 07:11:03 51°17.578 2°50.84 4 281 11.6 100980 36
2010-05-27 07:11:08 51°17.578 2°50.84 4.1 326 11.6 100980 36
2010-05-27 07:11:13 51°17.578 2°50.84 3.5 302 11.6 100980 36
2010-05-27 07:11:18 51°17.578 2°50.84 3.7 324 11.6 100980 36
2010-05-27 07:11:23 51°17.578 2°50.84 4 280 11.6 100980 36
2010-05-27 07:11:28 51°17.578 2°50.841 4 327 11.6 100980 38
2010-05-27 07:11:33 51°17.578 2°50.841 4 284 11.6 100980 38
2010-05-27 07:11:38 51°17.578 2°50.841 3.8 328 11.6 100980 38
2010-05-27 07:11:43 51°17.578 2°50.84 4 330 11.6 100980 38
2010-05-27 07:11:48 51°17.578 2°50.841 3.5 328 11.6 100980 36
2010-05-27 07:11:53 51°17.578 2°50.84 3.9 -999 11.6 100980 36
2010-05-27 07:11:58 51°17.578 2°50.841 3.7 326 11.6 100970 36
2010-05-27 07:12:03 51°17.578 2°50.84 3.7 328 11.6 100970 36
2010-05-27 07:12:08 51°17.578 2°50.841 3.9 326 11.6 100980 36
2010-05-27 07:12:13 51°17.578 2°50.84 3.5 282 11.6 100980 36
2010-05-27 07:12:18 51°17.578 2°50.841 4.1 326 11.5 100980 36
2010-05-27 07:12:23 51°17.578 2°50.841 4 284 11.5 100980 36
2010-05-27 07:12:28 51°17.578 2°50.841 4.3 324 11.6 100980 37
2010-05-27 07:12:33 51°17.578 2°50.84 4.4 327 11.6 100980 37
2010-05-27 07:12:38 51°17.578 2°50.84 4.3 329 11.6 100980 36
2010-05-27 07:12:43 51°17.578 2°50.84 4.2 279 11.6 100980 36
2010-05-27 07:12:48 51°17.578 2°50.841 3.9 327 11.6 100980 36
2010-05-27 07:12:53 51°17.578 2°50.841 3.7 326 11.6 100980 36
2010-05-27 07:12:58 51°17.578 2°50.84 3.4 327 11.6 100970 38
2010-05-27 07:13:03 51°17.578 2°50.841 3.2 286 11.6 100970 38
2010-05-27 07:13:08 51°17.578 2°50.84 3.6 328 11.6 100980 36
2010-05-27 07:13:13 51°17.578 2°50.84 3.6 329 11.6 100980 36
2010-05-27 07:13:18 51°17.578 2°50.84 3.3 332 11.5 100970 36
2010-05-27 07:13:23 51°17.578 2°50.84 3.8 328 11.5 100970 36
2010-05-27 07:13:28 51°17.579 2°50.84 3.5 331 11.6 100970 36
2010-05-27 07:13:33 51°17.578 2°50.841 3.4 303 11.6 100970 36
2010-05-27 07:13:38 51°17.579 2°50.84 3.3 333 11.5 100980 37
2010-05-27 07:13:43 51°17.578 2°50.84 3.2 328 11.5 100980 37
2010-05-27 07:13:48 51°17.579 2°50.84 3.5 330 11.5 100970 37
2010-05-27 07:13:53 51°17.578 2°50.841 3.4 -999 11.5 100970 37
2010-05-27 07:13:58 51°17.579 2°50.84 3 328 11.6 100970 38
2010-05-27 07:14:03 51°17.578 2°50.84 3.1 302 11.6 100970 38
2010-05-27 07:14:08 51°17.579 2°50.84 3.2 328 11.6 100980 38
2010-05-27 07:14:13 51°17.579 2°50.84 3.2 280 11.6 100980 38
2010-05-27 07:14:18 51°17.579 2°50.84 3 330 11.6 100970 38
2010-05-27 07:14:23 51°17.579 2°50.84 3.1 327 11.6 100970 38
2010-05-27 07:14:28 51°17.579 2°50.84 3.2 326 11.6 100970 36
2010-05-27 07:14:33 51°17.579 2°50.84 3.4 283 11.6 100970 36
2010-05-27 07:14:38 51°17.579 2°50.84 3.7 326 11.6 100970 36
2010-05-27 07:14:43 51°17.579 2°50.84 3.2 278 11.6 100970 36
2010-05-27 07:14:48 51°17.579 2°50.84 3.7 325 11.6 100980 37
2010-05-27 07:14:53 51°17.579 2°50.839 3.6 327 11.6 100980 37
2010-05-27 07:14:58 51°17.579 2°50.839 3.7 326 11.6 100970 36
2010-05-27 07:15:03 51°17.579 2°50.839 3.6 282 11.6 100970 36
2010-05-27 07:15:09 51°17.579 2°50.839 3.6 325 11.6 100970 36
2010-05-27 07:15:14 51°17.579 2°50.839 4 284 11.6 100970 36
2010-05-27 07:15:18 51°17.579 2°50.839 3.4 321 11.7 100970 38
2010-05-27 07:15:23 51°17.579 2°50.839 3.9 277 11.7 100970 38
2010-05-27 07:15:28 51°17.579 2°50.839 4.5 27 11.6 100970 38
2010-05-27 07:15:33 51°17.579 2°50.84 4.5 308 11.6 100970 38
2010-05-27 07:15:38 51°17.579 2°50.839 5.1 326 11.7 100970 36
2010-05-27 07:15:43 51°17.578 2°50.84 4.3 279 11.7 100970 36
2010-05-27 07:15:48 51°17.578 2°50.839 4.3 329 11.7 100970 37
2010-05-27 07:15:53 51°17.578 2°50.84 4.1 284 11.7 100970 37
2010-05-27 07:15:58 51°17.578 2°50.84 3.9 330 11.7 100970 37
2010-05-27 07:16:03 51°17.578 2°50.84 4.1 282 11.7 100970 37
2010-05-27 07:16:08 51°17.578 2°50.84 3.6 335 11.7 100970 36
2010-05-27 07:16:13 51°17.578 2°50.841 3.7 279 11.7 100970 36
2010-05-27 07:16:18 51°17.578 2°50.84 3.8 333 11.6 100970 36
2010-05-27 07:16:22 51°17.578 2°50.841 4.2 330 11.6 100970 36
2010-05-27 07:16:28 51°17.578 2°50.84 3.9 332 11.7 100970 35
2010-05-27 07:16:33 51°17.578 2°50.84 3.5 280 11.7 100970 35
2010-05-27 07:16:38 51°17.578 2°50.841 4 330 11.7 100970 38
2010-05-27 07:16:43 51°17.578 2°50.841 4 283 11.7 100970 38
2010-05-27 07:16:48 51°17.578 2°50.841 4 332 11.7 100970 36
2010-05-27 07:16:54 51°17.578 2°50.841 3.7 278 11.7 100970 36
2010-05-27 07:16:58 51°17.578 2°50.841 4 331 11.6 100970 37
2010-05-27 07:17:03 51°17.578 2°50.841 4.1 330 11.6 100970 37
2010-05-27 07:17:08 51°17.578 2°50.84 3.7 331 11.6 100970 36
2010-05-27 07:17:13 51°17.579 2°50.84 3.7 279 11.6 100970 36
2010-05-27 07:17:18 51°17.579 2°50.84 3.5 329 11.6 100970 36
2010-05-27 07:17:23 51°17.579 2°50.84 3.4 281 11.6 100970 36
2010-05-27 07:17:28 51°17.579 2°50.84 3.2 333 11.6 100970 37
2010-05-27 07:17:33 51°17.579 2°50.84 3.3 336 11.6 100970 37
2010-05-27 07:17:38 51°17.579 2°50.84 3.1 334 11.6 100970 37
2010-05-27 07:17:42 51°17.579 2°50.839 3 335 11.6 100970 37
2010-05-27 07:17:48 51°17.579 2°50.84 3 328 11.6 100970 36
2010-05-27 07:17:53 51°17.579 2°50.839 3 283 11.6 100970 36
2010-05-27 07:17:58 51°17.579 2°50.839 3.3 323 11.6 100970 36
2010-05-27 07:18:03 51°17.58 2°50.839 3.2 279 11.6 100970 36
2010-05-27 07:18:08 51°17.58 2°50.839 3.1 334 11.5 100970 36
2010-05-27 07:18:13 51°17.58 2°50.839 3.4 277 11.5 100970 36
2010-05-27 07:18:18 51°17.58 2°50.839 3.4 333 11.6 100970 38
2010-05-27 07:18:23 51°17.58 2°50.839 3.7 279 11.6 100970 38
2010-05-27 07:18:28 51°17.58 2°50.839 3.4 333 11.6 100970 38
2010-05-27 07:18:33 51°17.58 2°50.838 4 336 11.6 100970 38
2010-05-27 07:18:38 51°17.58 2°50.839 3.6 329 11.6 100970 37
2010-05-27 07:18:43 51°17.58 2°50.838 3.7 285 11.6 100970 37
2010-05-27 07:18:48 51°17.58 2°50.838 3.8 333 11.6 100970 36
2010-05-27 07:18:53 51°17.58 2°50.838 4 280 11.6 100970 36
2010-05-27 07:18:58 51°17.58 2°50.838 3.9 327 11.6 100970 38
2010-05-27 07:19:03 51°17.58 2°50.838 3.6 278 11.6 100970 38
2010-05-27 07:19:08 51°17.58 2°50.838 4.2 327 11.6 100970 37
2010-05-27 07:19:13 51°17.58 2°50.838 4.1 284 11.6 100970 37
2010-05-27 07:19:18 51°17.58 2°50.838 4.1 327 11.6 100960 36
2010-05-27 07:19:23 51°17.58 2°50.838 4.2 285 11.6 100960 36
2010-05-27 07:19:28 51°17.58 2°50.838 4.4 324 11.6 100970 38
2010-05-27 07:19:34 51°17.579 2°50.838 4.4 284 11.6 100970 38
2010-05-27 07:19:38 51°17.58 2°50.838 4 326 11.6 100970 38
2010-05-27 07:19:43 51°17.579 2°50.839 4.4 280 11.6 100970 38
2010-05-27 07:19:48 51°17.579 2°50.838 4.2 322 11.7 100970 36
2010-05-27 07:19:53 51°17.579 2°50.839 4.5 280 11.7 100970 36
2010-05-27 07:19:58 51°17.579 2°50.838 3.5 320 11.7 100960 36
2010-05-27 07:20:03 51°17.579 2°50.839 4.3 303 11.7 100960 36
2010-05-27 07:20:08 51°17.579 2°50.839 4.1 324 11.6 100970 38
2010-05-27 07:20:13 51°17.579 2°50.839 4.5 303 11.6 100970 38
2010-05-27 07:20:18 51°17.579 2°50.839 4.2 325 11.6 100970 37
2010-05-27 07:20:23 51°17.579 2°50.839 4.4 301 11.6 100970 37
2010-05-27 07:20:28 51°17.579 2°50.839 4.4 324 11.6 100970 36
2010-05-27 07:20:33 51°17.578 2°50.84 4.8 283 11.6 100970 36
2010-05-27 07:20:38 51°17.578 2°50.84 4.6 324 11.6 100970 36
2010-05-27 07:20:43 51°17.578 2°50.84 3.9 302 11.6 100970 36
2010-05-27 07:20:48 51°17.578 2°50.84 4 327 11.6 100960 38
2010-05-27 07:20:53 51°17.578 2°50.84 3.8 282 11.6 100960 38
2010-05-27 07:20:58 51°17.578 2°50.841 4.2 324 11.6 100970 36
2010-05-27 07:21:03 51°17.578 2°50.841 4 326 11.6 100970 36
2010-05-27 07:21:08 51°17.578 2°50.841 4.3 323 11.6 100970 36
2010-05-27 07:21:13 51°17.578 2°50.841 4.7 279 11.6 100970 36
2010-05-27 07:21:18 51°17.578 2°50.841 4.1 328 11.6 100970 36
2010-05-27 07:21:23 51°17.578 2°50.842 4.3 322 11.6 100970 36
2010-05-27 07:21:28 51°17.578 2°50.842 4 322 11.6 100970 36
2010-05-27 07:21:33 51°17.577 2°50.842 4.4 284 11.6 100970 36
2010-05-27 07:21:38 51°17.577 2°50.842 4.2 322 11.6 100970 36
2010-05-27 07:21:43 51°17.577 2°50.842 4.5 278 11.6 100970 36
2010-05-27 07:21:48 51°17.577 2°50.842 4.4 324 11.6 100970 37
2010-05-27 07:21:53 51°17.577 2°50.843 4.5 -999 11.6 100970 37
2010-05-27 07:21:58 51°17.577 2°50.842 4.5 323 11.6 100970 38
2010-05-27 07:22:03 51°17.577 2°50.843 4.5 285 11.6 100970 38
2010-05-27 07:22:08 51°17.578 2°50.842 4 326 11.6 100970 36
2010-05-27 07:22:13 51°17.577 2°50.843 4.3 307 11.6 100970 36
2010-05-27 07:22:18 51°17.577 2°50.842 4.2 328 11.6 100970 37
2010-05-27 07:22:23 51°17.577 2°50.843 3.8 282 11.6 100970 37
2010-05-27 07:22:28 51°17.577 2°50.843 4.2 321 11.6 100970 39
2010-05-27 07:22:33 51°17.577 2°50.843 4.2 322 11.6 100970 39
2010-05-27 07:22:38 51°17.577 2°50.842 2.6 324 11.6 100970 37
2010-05-27 07:22:43 51°17.577 2°50.843 4.2 301 11.6 100970 37
2010-05-27 07:22:48 51°17.577 2°50.843 4.1 322 11.6 100970 38
2010-05-27 07:22:53 51°17.577 2°50.843 4.3 279 11.6 100970 38
2010-05-27 07:22:58 51°17.577 2°50.843 4.2 322 11.6 100970 36
2010-05-27 07:23:03 51°17.577 2°50.843 4.4 284 11.6 100970 36
2010-05-27 07:23:08 51°17.577 2°50.843 4.1 324 11.6 100970 36
2010-05-27 07:23:13 51°17.577 2°50.843 4 306 11.6 100970 36
2010-05-27 07:23:18 51°17.577 2°50.843 4 322 11.6 100970 36
2010-05-27 07:23:23 51°17.577 2°50.843 4.2 279 11.6 100970 36
2010-05-27 07:23:28 51°17.577 2°50.843 4.3 324 11.6 100970 37
2010-05-27 07:23:33 51°17.577 2°50.842 4.4 321 11.6 100970 37
2010-05-27 07:23:38 51°17.577 2°50.843 4.1 321 11.6 100970 37
2010-05-27 07:23:43 51°17.577 2°50.842 4.2 278 11.6 100970 37
2010-05-27 07:23:48 51°17.577 2°50.843 3.8 320 11.6 100970 37
2010-05-27 07:23:53 51°17.577 2°50.842 4.2 -999 11.6 100970 37
2010-05-27 07:23:58 51°17.577 2°50.843 4 319 11.6 100970 37
2010-05-27 07:24:03 51°17.577 2°50.843 4.2 279 11.6 100970 37
2010-05-27 07:24:08 51°17.577 2°50.843 4.2 322 11.6 100980 36
2010-05-27 07:24:14 51°17.577 2°50.843 3.8 284 11.6 100980 36
2010-05-27 07:24:18 51°17.577 2°50.843 4.1 323 11.6 100980 38
2010-05-27 07:24:23 51°17.577 2°50.843 4.4 278 11.6 100980 38
2010-05-27 07:24:28 51°17.577 2°50.843 4.1 321 11.6 100970 35
2010-05-27 07:24:34 51°17.577 2°50.843 4 284 11.6 100970 35
2010-05-27 07:24:38 51°17.577 2°50.842 3.6 322 11.6 100970 38
2010-05-27 07:24:43 51°17.577 2°50.843 3.9 308 11.6 100970 38
2010-05-27 07:24:48 51°17.577 2°50.842 4 324 11.6 100970 38
2010-05-27 07:24:53 51°17.577 2°50.843 4 304 11.6 100970 38
2010-05-27 07:24:58 51°17.577 2°50.842 4.3 324 11.6 100970 38
2010-05-27 07:25:03 51°17.577 2°50.842 4.4 304 11.6 100970 38
2010-05-27 07:25:08 51°17.578 2°50.842 3.8 328 11.6 100970 37
2010-05-27 07:25:13 51°17.577 2°50.842 3.8 279 11.6 100970 37
2010-05-27 07:25:18 51°17.578 2°50.842 4.2 327 11.6 100980 36
2010-05-27 07:25:23 51°17.578 2°50.842 3.6 328 11.6 100980 36
2010-05-27 07:25:28 51°17.578 2°50.842 3.5 326 11.6 100970 36
2010-05-27 07:25:33 51°17.578 2°50.842 3.8 285 11.6 100970 36
2010-05-27 07:25:38 51°17.578 2°50.842 4.2 324 11.6 100970 37
2010-05-27 07:25:43 51°17.578 2°50.842 3.7 301 11.6 100970 37
2010-05-27 07:25:48 51°17.578 2°50.843 3.6 330 11.6 100970 38
2010-05-27 07:25:53 51°17.578 2°50.842 3.8 278 11.6 100970 38
2010-05-27 07:25:58 51°17.578 2°50.842 3.9 330 11.6 100980 39
2010-05-27 07:26:03 51°17.578 2°50.841 3.7 284 11.6 100980 39
2010-05-27 07:26:08 51°17.578 2°50.841 4.2 330 11.6 100970 36
2010-05-27 07:26:14 51°17.578 2°50.841 4.1 279 11.6 100970 36
2010-05-27 07:26:18 51°17.578 2°50.841 4.5 330 11.6 100980 39
2010-05-27 07:26:23 51°17.578 2°50.84 4.3 279 11.6 100980 39
2010-05-27 07:26:28 51°17.578 2°50.841 4 331 11.6 100980 37
2010-05-27 07:26:33 51°17.578 2°50.841 3.8 278 11.6 100980 37
2010-05-27 07:26:38 51°17.578 2°50.841 4.5 332 11.6 100980 38
2010-05-27 07:26:43 51°17.578 2°50.84 3.8 284 11.6 100980 38
2010-05-27 07:26:48 51°17.578 2°50.841 3.9 329 11.6 100980 36
2010-05-27 07:26:53 51°17.578 2°50.84 3.9 330 11.6 100980 36
2010-05-27 07:26:58 51°17.578 2°50.841 4.2 328 11.5 100980 38
2010-05-27 07:27:03 51°17.578 2°50.84 3.9 278 11.5 100980 38
2010-05-27 07:27:08 51°17.578 2°50.841 3.5 327 11.5 100980 35
2010-05-27 07:27:13 51°17.578 2°50.84 3.5 329 11.5 100980 35
2010-05-27 07:27:18 51°17.578 2°50.84 3.7 329 11.6 100980 36
2010-05-27 07:27:23 51°17.578 2°50.84 3.7 285 11.6 100980 36
2010-05-27 07:27:28 51°17.578 2°50.841 3.8 332 11.6 100980 36
2010-05-27 07:27:33 51°17.579 2°50.84 4 282 11.6 100980 36
2010-05-27 07:27:38 51°17.578 2°50.841 4.1 328 11.6 100980 39
2010-05-27 07:27:43 51°17.578 2°50.84 4 329 11.6 100980 39
2010-05-27 07:27:48 51°17.578 2°50.841 4.5 328 11.6 100980 36
2010-05-27 07:27:53 51°17.578 2°50.84 4.2 -999 11.6 100980 36
2010-05-27 07:27:58 51°17.578 2°50.841 4.3 325 11.6 100980 39
2010-05-27 07:28:03 51°17.578 2°50.84 4 328 11.6 100980 39
2010-05-27 07:28:08 51°17.578 2°50.841 4.1 331 11.5 100980 37
2010-05-27 07:28:13 51°17.578 2°50.84 4.1 278 11.5 100980 37
2010-05-27 07:28:18 51°17.578 2°50.841 4.2 332 11.5 100970 38
2010-05-27 07:28:22 51°17.578 2°50.84 3.9 282 11.5 100970 38
2010-05-27 07:28:28 51°17.578 2°50.84 4.1 332 11.5 100980 37
2010-05-27 07:28:33 51°17.578 2°50.84 3.7 330 11.5 100980 37
2010-05-27 07:28:38 51°17.578 2°50.84 3.6 329 11.5 100980 38
2010-05-27 07:28:43 51°17.578 2°50.84 3.5 280 11.5 100980 38
2010-05-27 07:28:48 51°17.578 2°50.84 3.7 331 11.5 100980 38
2010-05-27 07:28:53 51°17.578 2°50.841 3.7 331 11.5 100980 38
2010-05-27 07:28:58 51°17.578 2°50.84 3.6 330 11.4 100980 37
2010-05-27 07:29:03 51°17.578 2°50.84 3.5 284 11.4 100980 37
2010-05-27 07:29:08 51°17.578 2°50.84 3.8 330 11.4 100980 36
2010-05-27 07:29:14 51°17.578 2°50.84 4.1 284 11.4 100980 36
2010-05-27 07:29:18 51°17.578 2°50.84 3.7 323 11.4 100980 37
2010-05-27 07:29:23 51°17.578 2°50.84 4.2 284 11.4 100980 37
2010-05-27 07:29:28 51°17.578 2°50.841 4.1 331 11.4 100980 36
2010-05-27 07:29:33 51°17.578 2°50.841 3.9 284 11.4 100980 36
2010-05-27 07:29:38 51°17.578 2°50.84 3.8 330 11.4 100980 36
2010-05-27 07:29:43 51°17.578 2°50.841 4.1 326 11.4 100980 36
2010-05-27 07:29:48 51°17.579 2°50.84 3.8 328 11.5 100980 35
2010-05-27 07:29:53 51°17.579 2°50.84 3.5 -999 11.5 100980 35
2010-05-27 07:29:58 51°17.579 2°50.84 3.7 329 11.5 100980 38
2010-05-27 07:30:03 51°17.579 2°50.84 3.6 330 11.5 100980 38
2010-05-27 07:30:08 51°17.579 2°50.84 3.3 331 11.5 100980 37
2010-05-27 07:30:13 51°17.579 2°50.84 3.3 280 11.5 100980 37
2010-05-27 07:30:18 51°17.579 2°50.84 3.8 328 11.5 100980 35
2010-05-27 07:30:23 51°17.579 2°50.839 4.3 329 11.5 100980 35
2010-05-27 07:30:28 51°17.579 2°50.839 3.9 329 11.5 100980 36
2010-05-27 07:30:33 51°17.579 2°50.839 3.4 330 11.5 100980 36
2010-05-27 07:30:38 51°17.579 2°50.839 3.3 329 11.5 100980 36
2010-05-27 07:30:43 51°17.579 2°50.839 3.4 282 11.5 100980 36
2010-05-27 07:30:48 51°17.579 2°50.839 3.6 327 11.5 100980 38
2010-05-27 07:30:53 51°17.579 2°50.839 3.4 331 11.5 100980 38
2010-05-27 07:30:58 51°17.579 2°50.839 3.9 328 11.5 100980 37
2010-05-27 07:31:03 51°17.579 2°50.839 3.8 330 11.5 100980 37
2010-05-27 07:31:09 51°17.579 2°50.839 3.4 330 11.5 100980 36
2010-05-27 07:31:14 51°17.579 2°50.84 3.8 282 11.5 100980 36
2010-05-27 07:31:18 51°17.579 2°50.84 3.5 332 11.5 100980 37
2010-05-27 07:31:23 51°17.579 2°50.84 3.7 285 11.5 100980 37
2010-05-27 07:31:28 51°17.579 2°50.84 3.7 333 11.4 100980 37
2010-05-27 07:31:33 51°17.579 2°50.84 3.5 283 11.4 100980 37
2010-05-27 07:31:38 51°17.579 2°50.84 3.2 332 11.4 100980 37
2010-05-27 07:31:43 51°17.579 2°50.84 3.2 284 11.4 100980 37
2010-05-27 07:31:48 51°17.579 2°50.84 3.1 331 11.4 100980 36
2010-05-27 07:31:53 51°17.579 2°50.839 3 279 11.4 100980 36
2010-05-27 07:31:58 51°17.579 2°50.84 3.3 331 11.4 100980 36
2010-05-27 07:32:03 51°17.579 2°50.839 3 282 11.4 100980 36
2010-05-27 07:32:08 51°17.579 2°50.84 3.1 332 11.4 100980 38
2010-05-27 07:32:13 51°17.579 2°50.839 3.3 280 11.4 100980 38
2010-05-27 07:32:18 51°17.579 2°50.84 3 330 11.4 100980 38
2010-05-27 07:32:23 51°17.579 2°50.839 3.3 337 11.4 100980 38
2010-05-27 07:32:28 51°17.579 2°50.84 3.8 338 11.4 100980 35
2010-05-27 07:32:33 51°17.579 2°50.839 3.5 285 11.4 100980 35
2010-05-27 07:32:38 51°17.579 2°50.84 3.7 334 11.4 100980 36
2010-05-27 07:32:42 51°17.579 2°50.839 3.8 284 11.4 100980 36
2010-05-27 07:32:48 51°17.579 2°50.84 3.9 333 11.4 100980 36
2010-05-27 07:32:53 51°17.579 2°50.839 3.6 336 11.4 100980 36
2010-05-27 07:32:58 51°17.579 2°50.839 3.8 335 11.4 100980 38
2010-05-27 07:33:03 51°17.579 2°50.839 3.6 284 11.4 100980 38
2010-05-27 07:33:09 51°17.579 2°50.84 3.5 336 11.4 100980 36
2010-05-27 07:33:14 51°17.579 2°50.839 3.3 280 11.4 100980 36
2010-05-27 07:33:18 51°17.579 2°50.84 3.8 333 11.4 100980 38
2010-05-27 07:33:23 51°17.579 2°50.839 3.5 282 11.4 100980 38
2010-05-27 07:33:28 51°17.579 2°50.839 3.2 337 11.4 100980 38
2010-05-27 07:33:33 51°17.579 2°50.839 3.5 340 11.4 100980 38
2010-05-27 07:33:38 51°17.579 2°50.839 3.1 338 11.4 100980 38
2010-05-27 07:33:43 51°17.579 2°50.839 3.1 286 11.4 100980 38
2010-05-27 07:33:48 51°17.579 2°50.839 3.1 333 11.4 100970 38
2010-05-27 07:33:53 51°17.58 2°50.839 3.2 283 11.4 100970 38
2010-05-27 07:33:58 51°17.58 2°50.839 2.8 336 11.4 100980 36
2010-05-27 07:34:03 51°17.58 2°50.839 3.1 284 11.4 100980 36
2010-05-27 07:34:08 51°17.58 2°50.839 3.5 334 11.4 100980 38
2010-05-27 07:34:13 51°17.58 2°50.839 3.1 286 11.4 100980 38
2010-05-27 07:34:18 51°17.58 2°50.839 3.2 336 11.4 100980 36
2010-05-27 07:34:22 51°17.58 2°50.839 3 333 11.4 100980 36
2010-05-27 07:34:28 51°17.58 2°50.839 2.9 332 11.4 100980 37
2010-05-27 07:34:33 51°17.58 2°50.839 3.4 332 11.4 100980 37
2010-05-27 07:34:38 51°17.58 2°50.84 3 334 11.4 100980 36
2010-05-27 07:34:43 51°17.58 2°50.84 3 282 11.4 100980 36
2010-05-27 07:34:48 51°17.58 2°50.84 3.4 331 11.4 100980 38
2010-05-27 07:34:53 51°17.58 2°50.84 2.7 329 11.4 100980 38
2010-05-27 07:34:58 51°17.58 2°50.84 3.2 330 11.4 100980 36
2010-05-27 07:35:03 51°17.58 2°50.84 3.5 287 11.4 100980 36
2010-05-27 07:35:08 51°17.58 2°50.84 3.3 331 11.4 100980 35
2010-05-27 07:35:13 51°17.58 2°50.84 3.3 333 11.4 100980 35
2010-05-27 07:35:18 51°17.58 2°50.84 3.5 337 11.4 100970 36
2010-05-27 07:35:23 51°17.58 2°50.84 3.9 283 11.4 100970 36
2010-05-27 07:35:28 51°17.58 2°50.84 3.1 339 11.4 100970 36
2010-05-27 07:35:34 51°17.58 2°50.84 3.2 281 11.4 100970 36
2010-05-27 07:35:38 51°17.58 2°50.84 3.1 339 11.4 100970 37
2010-05-27 07:35:42 51°17.58 2°50.84 3.2 343 11.4 100970 37
2010-05-27 07:35:48 51°17.579 2°50.84 3.1 344 11.4 100970 36
2010-05-27 07:35:53 51°17.579 2°50.84 3 284 11.4 100970 36
2010-05-27 07:35:58 51°17.579 2°50.84 3.1 346 11.4 100970 36
2010-05-27 07:36:03 51°17.579 2°50.84 3.2 284 11.4 100970 36
2010-05-27 07:36:08 51°17.579 2°50.84 3.4 339 11.5 100980 38
2010-05-27 07:36:13 51°17.579 2°50.84 3.9 278 11.5 100980 38
2010-05-27 07:36:18 51°17.579 2°50.84 4.2 337 11.4 100970 36
2010-05-27 07:36:23 51°17.579 2°50.84 3.8 285 11.4 100970 36
2010-05-27 07:36:28 51°17.579 2°50.84 3.9 338 11.4 100970 38
2010-05-27 07:36:33 51°17.58 2°50.84 4.2 280 11.4 100970 38
2010-05-27 07:36:38 51°17.579 2°50.841 4.3 339 11.4 100970 37
2010-05-27 07:36:43 51°17.58 2°50.84 4.7 340 11.4 100970 37
2010-05-27 07:36:48 51°17.58 2°50.841 4.1 336 11.4 100970 38
2010-05-27 07:36:53 51°17.58 2°50.84 4.3 284 11.4 100970 38
2010-05-27 07:36:58 51°17.58 2°50.84 4.1 338 11.4 100970 36
2010-05-27 07:37:03 51°17.58 2°50.84 3.8 338 11.4 100970 36
2010-05-27 07:37:08 51°17.58 2°50.84 4 339 11.5 100970 36
2010-05-27 07:37:13 51°17.58 2°50.84 4.2 280 11.5 100970 36
2010-05-27 07:37:18 51°17.58 2°50.84 3.7 339 11.4 100960 36
2010-05-27 07:37:23 51°17.58 2°50.84 3.9 285 11.4 100960 36
2010-05-27 07:37:28 51°17.58 2°50.839 4.1 337 11.4 100970 38
2010-05-27 07:37:33 51°17.58 2°50.839 4.3 338 11.4 100970 38
2010-05-27 07:37:38 51°17.58 2°50.839 3.8 335 11.4 100970 36
2010-05-27 07:37:43 51°17.58 2°50.839 3.8 278 11.4 100970 36
2010-05-27 07:37:48 51°17.58 2°50.839 3.7 338 11.4 100970 35
2010-05-27 07:37:53 51°17.58 2°50.839 3.9 286 11.4 100970 35
2010-05-27 07:37:58 51°17.58 2°50.839 3.8 337 11.4 100960 38
2010-05-27 07:38:03 51°17.58 2°50.839 3.3 335 11.4 100960 38
2010-05-27 07:38:08 51°17.58 2°50.838 3.9 336 11.4 100970 38
2010-05-27 07:38:13 51°17.58 2°50.839 3.3 335 11.4 100970 38
2010-05-27 07:38:18 51°17.58 2°50.839 3.5 336 11.4 100970 35
2010-05-27 07:38:23 51°17.58 2°50.839 3.5 337 11.4 100970 35
2010-05-27 07:38:28 51°17.58 2°50.839 3.4 338 11.4 100960 36
2010-05-27 07:38:33 51°17.58 2°50.839 3.5 280 11.4 100960 36
2010-05-27 07:38:38 51°17.58 2°50.839 3.5 334 11.4 100960 38
2010-05-27 07:38:43 51°17.58 2°50.839 3.4 333 11.4 100960 38
2010-05-27 07:38:48 51°17.58 2°50.839 3.3 335 11.4 100970 38
2010-05-27 07:38:53 51°17.58 2°50.839 4.2 283 11.4 100970 38
2010-05-27 07:38:58 51°17.58 2°50.839 4.5 332 11.4 100960 37
2010-05-27 07:39:03 51°17.58 2°50.839 4.1 334 11.4 100960 37
2010-05-27 07:39:08 51°17.58 2°50.839 3.9 335 11.4 100960 36
2010-05-27 07:39:13 51°17.58 2°50.839 3.9 286 11.4 100960 36
2010-05-27 07:39:18 51°17.58 2°50.839 3.6 333 11.4 100970 36
2010-05-27 07:39:23 51°17.58 2°50.839 3.5 337 11.4 100970 36
2010-05-27 07:39:28 51°17.58 2°50.839 4.2 332 11.5 100960 36
2010-05-27 07:39:33 51°17.579 2°50.839 4.2 280 11.5 100960 36
2010-05-27 07:39:38 51°17.579 2°50.839 4.7 340 11.4 100960 36
2010-05-27 07:39:43 51°17.579 2°50.839 4.4 286 11.4 100960 36
2010-05-27 07:39:48 51°17.579 2°50.839 4 337 11.4 100960 38
2010-05-27 07:39:53 51°17.579 2°50.839 3.8 279 11.4 100960 38
2010-05-27 07:39:58 51°17.579 2°50.839 4 339 11.4 100960 36
2010-05-27 07:40:02 51°17.578 2°50.839 3.9 286 11.4 100960 36
2010-05-27 07:40:08 51°17.578 2°50.839 4 338 11.4 100960 36
2010-05-27 07:40:13 51°17.578 2°50.839 3.9 335 11.4 100960 36
2010-05-27 07:40:18 51°17.578 2°50.839 3.8 334 11.4 100960 37
2010-05-27 07:40:23 51°17.577 2°50.839 3.7 335 11.4 100960 37
2010-05-27 07:40:28 51°17.577 2°50.839 3.8 334 11.5 100960 37
2010-05-27 07:40:34 51°17.578 2°50.839 3.9 286 11.5 100960 37
2010-05-27 07:40:38 51°17.577 2°50.84 3.8 335 11.4 100960 38
2010-05-27 07:40:42 51°17.577 2°50.84 3.8 336 11.4 100960 38
2010-05-27 07:40:48 51°17.577 2°50.84 4 335 11.4 100970 36
2010-05-27 07:40:53 51°17.577 2°50.84 4.5 287 11.4 100970 36
2010-05-27 07:40:58 51°17.578 2°50.84 4.5 342 11.4 100960 37
2010-05-27 07:41:03 51°17.577 2°50.841 4 337 11.4 100960 37
2010-05-27 07:41:08 51°17.578 2°50.84 3.7 339 11.4 100960 38
2010-05-27 07:41:13 51°17.578 2°50.841 4.1 284 11.4 100960 38
2010-05-27 07:41:18 51°17.578 2°50.84 4 339 11.4 100960 36
2010-05-27 07:41:23 51°17.578 2°50.841 3.6 339 11.4 100960 36
2010-05-27 07:41:28 51°17.578 2°50.84 3.9 339 11.4 100960 36
2010-05-27 07:41:33 51°17.577 2°50.841 3.5 285 11.4 100960 36
2010-05-27 07:41:38 51°17.578 2°50.84 3.6 342 11.4 100960 38
2010-05-27 07:41:43 51°17.577 2°50.84 3.8 286 11.4 100960 38
2010-05-27 07:41:48 51°17.577 2°50.84 3.8 340 11.5 100960 38
2010-05-27 07:41:53 51°17.577 2°50.841 3.8 -999 11.5 100960 38
2010-05-27 07:41:58 51°17.577 2°50.84 4.2 342 11.4 100970 38
2010-05-27 07:42:03 51°17.577 2°50.84 4 286 11.4 100970 38
2010-05-27 07:42:08 51°17.577 2°50.84 3.7 341 11.4 100960 36
2010-05-27 07:42:13 51°17.577 2°50.84 3.6 340 11.4 100960 36
2010-05-27 07:42:18 51°17.577 2°50.839 3.9 342 11.4 100960 38
2010-05-27 07:42:23 51°17.577 2°50.84 3.9 286 11.4 100960 38
2010-05-27 07:42:28 51°17.577 2°50.839 3.9 342 11.4 100970 36
2010-05-27 07:42:33 51°17.576 2°50.84 4 339 11.4 100970 36
2010-05-27 07:42:38 51°17.577 2°50.839 3.9 337 11.4 100960 38
2010-05-27 07:42:43 51°17.577 2°50.84 3.8 279 11.4 100960 38
2010-05-27 07:42:48 51°17.577 2°50.839 3.6 339 11.4 100970 36
2010-05-27 07:42:53 51°17.577 2°50.84 3.2 339 11.4 100970 36
2010-05-27 07:42:58 51°17.577 2°50.84 3.4 338 11.4 100970 36
2010-05-27 07:43:02 51°17.577 2°50.84 3.6 336 11.4 100970 36
2010-05-27 07:43:08 51°17.578 2°50.839 3.8 340 11.4 100960 37
2010-05-27 07:43:13 51°17.577 2°50.84 3.2 279 11.4 100960 37
2010-05-27 07:43:18 51°17.578 2°50.84 3.3 341 11.4 100970 37
2010-05-27 07:43:23 51°17.578 2°50.84 3.6 278 11.4 100970 37
2010-05-27 07:43:28 51°17.577 2°50.84 4 342 11.4 100960 38
2010-05-27 07:43:33 51°17.578 2°50.84 3.3 344 11.4 100960 38
2010-05-27 07:43:38 51°17.578 2°50.84 3.6 341 11.3 100970 37
2010-05-27 07:43:43 51°17.578 2°50.84 3.3 280 11.3 100970 37
2010-05-27 07:43:48 51°17.578 2°50.839 3 340 11.3 100970 38
2010-05-27 07:43:53 51°17.578 2°50.839 3.3 277 11.3 100970 38
2010-05-27 07:43:58 51°17.578 2°50.839 3.2 343 11.4 100970 37
2010-05-27 07:44:03 51°17.578 2°50.839 3.3 280 11.4 100970 37
2010-05-27 07:44:08 51°17.578 2°50.839 3.3 341 11.3 100970 38
2010-05-27 07:44:14 51°17.577 2°50.839 3.3 280 11.3 100970 38
2010-05-27 07:44:18 51°17.577 2°50.839 3.4 343 11.3 100970 38
2010-05-27 07:44:23 51°17.577 2°50.839 3.6 279 11.3 100970 38
2010-05-27 07:44:28 51°17.577 2°50.839 3.2 340 11.3 100970 38
2010-05-27 07:44:33 51°17.577 2°50.839 3.7 338 11.3 100970 38
2010-05-27 07:44:38 51°17.577 2°50.839 3.3 341 11.3 100970 38
2010-05-27 07:44:43 51°17.577 2°50.84 3.7 280 11.3 100970 38
2010-05-27 07:44:48 51°17.577 2°50.839 4.1 346 11.4 100970 38
2010-05-27 07:44:53 51°17.577 2°50.84 4.1 286 11.4 100970 38
2010-05-27 07:44:58 51°17.577 2°50.839 4.4 346 11.4 100970 38
2010-05-27 07:45:03 51°17.577 2°50.84 3.6 344 11.4 100970 38
2010-05-27 07:45:08 51°17.577 2°50.84 3.9 347 11.4 100970 38
2010-05-27 07:45:13 51°17.577 2°50.839 3.5 352 11.4 100970 38
2010-05-27 07:45:18 51°17.577 2°50.84 3.3 346 11.4 100980 36
2010-05-27 07:45:23 51°17.577 2°50.84 3.4 348 11.4 100980 36
2010-05-27 07:45:28 51°17.577 2°50.84 3.9 349 11.4 100970 37
2010-05-27 07:45:33 51°17.578 2°50.84 3.6 348 11.4 100970 37
2010-05-27 07:45:38 51°17.578 2°50.839 3.5 348 11.4 100970 36
2010-05-27 07:45:43 51°17.578 2°50.84 3.2 345 11.4 100970 36
2010-05-27 07:45:48 51°17.578 2°50.839 3.7 347 11.4 100970 35
2010-05-27 07:45:53 51°17.578 2°50.839 3.5 280 11.4 100970 35
2010-05-27 07:45:58 51°17.578 2°50.839 3.8 347 11.4 100970 38
2010-05-27 07:46:03 51°17.578 2°50.839 3.3 345 11.4 100970 38
2010-05-27 07:46:08 51°17.578 2°50.839 3.8 345 11.3 100970 38
2010-05-27 07:46:13 51°17.578 2°50.839 3.4 343 11.3 100970 38
2010-05-27 07:46:18 51°17.578 2°50.838 3.9 347 11.4 100970 37
2010-05-27 07:46:23 51°17.578 2°50.839 3.7 278 11.4 100970 37
2010-05-27 07:46:28 51°17.578 2°50.838 3.2 342 11.3 100970 36
2010-05-27 07:46:33 51°17.578 2°50.838 3.3 341 11.3 100970 36
2010-05-27 07:46:38 51°17.578 2°50.838 3.8 345 11.3 100970 36
2010-05-27 07:46:43 51°17.578 2°50.838 3.4 342 11.3 100970 36
2010-05-27 07:46:48 51°17.578 2°50.838 3.4 342 11.3 100970 38
2010-05-27 07:46:53 51°17.578 2°50.838 3.4 279 11.3 100970 38